Temp
67 64 58 60 61 63 62 58 57 62 66 62 55 56 58 60 59 58 59 61 62 64 65 65 66 67 68 68 66 65 65 64 64 64 63 61 63 61 60 60 62 61 61 61
64 57 65 67 66 66 62 56 57 62 65 61 55 58 58 59 56 58 59 60 62 62 64 66 65 65 65 65 66 64 65 64 64 63 63 61 61 59 59 58 59 60 60 60
60 65 70 69 64 64 57 58 56 58 61 61 57 55 57 60 60 60 60 60 62 61 62 64 65 64 64 64 64 65 64 64 64 63 61 59 58 57 58 57 57 58 59 60
61 67 69 66 64 62 54 63 62 60 55 49 55 44 52 56 58 60 59 58 60 61 63 62 63 62 63 65 64 64 63 62 63 62 59 58 56 56 55 55 55 56 57 57
61 64 64 63 62 65 60 63 58 57 51 48 53 47 49 55 55 59 61 61 61 61 61 61 62 62 64 65 64 63 62 62 61 60 59 57 56 55 54 54 54 54 54 55
62 69 67 65 66 66 65 60 55 49 48 43 48 47 47 51 58 58 62 64 64 63 62 61 63 63 62 63 63 62 62 60 60 59 59 57 55 54 53 53 53 53 53 53
64 64 68 70 64 65 61 51 42 43 40 42 49 47 50 56 60 62 63 65 65 63 61 61 61 61 61 62 62 62 59 59 59 58 57 56 54 54 52 51 51 51 51 52
54 54 64 70 63 60 54 53 43 38 37 42 50 44 52 59 62 63 64 63 62 61 59 60 61 61 62 63 60 60 59 58 58 56 55 55 54 53 52 52 51 50 50 51
54 55 67 69 67 65 55 51 53 44 40 40 44 51 58 58 59 60 61 61 60 60 59 60 61 62 61 59 59 59 58 57 56 55 55 54 54 53 52 51 50 50 51 53
61 53 62 66 67 65 60 60 49 44 38 36 42 44 48 55 57 60 60 59 60 61 60 60 61 60 58 58 56 56 56 56 55 55 54 54 53 52 51 51 50 50 52 53
58 54 57 61 58 55 57 52 48 47 43 38 36 43 54 56 58 58 58 59 59 60 60 59 58 58 58 56 56 56 56 56 54 54 53 52 52 52 51 50 50 51 54 54
56 52 49 53 60 61 57 51 49 42 43 40 39 42 57 56 57 58 58 59 59 58 59 57 57 56 56 56 56 56 55 54 54 53 53 51 51 50 49 49 51 54 53 53
59 50 44 51 56 60 56 56 50 46 43 42 38 44 60 58 56 58 59 59 59 58 56 57 56 56 56 56 55 55 54 53 53 53 52 50 49 49 48 49 51 53 53 52
60 48 49 45 50 52 51 54 53 49 40 42 44 49 54 56 56 58 58 56 57 57 58 56 55 55 55 55 55 54 54 53 53 52 50 49 48 48 48 50 52 53 52 50
58 51 50 51 56 56 54 54 53 50 50 46 49 48 54 55 58 58 57 57 58 59 58 57 56 55 55 54 53 54 53 53 51 50 49 48 48 49 49 52 52 52 51 51
54 50 50 50 56 55 53 55 55 54 53 51 51 51 57 58 56 57 57 59 58 58 59 59 58 57 55 54 53 53 52 51 51 49 48 48 48 49 49 52 51 50 50 50
53 49 47 45 52 53 48 54 54 55 56 55 50 54 57 57 58 56 58 58 58 59 60 60 59 58 56 54 54 52 51 51 49 48 48 48 48 49 50 52 50 49 49 50
52 48 45 42 46 38 53 58 59 56 57 57 56 57 57 57 58 59 60 58 59 60 61 60 59 56 54 53 52 51 50 49 49 47 47 48 48 49 51 50 49 49 49 49
53 48 42 42 40 48 55 57 55 53 54 57 55 57 58 58 58 59 62 60 60 59 59 59 57 56 55 52 50 51 49 48 48 47 47 48 48 48 50 49 48 48 47 48
52 50 47 41 40 38 52 59 61 58 45 57 57 56 56 55 50 53 59 59 60 60 58 58 58 56 52 50 51 50 48 47 46 47 47 48 48 50 48 47 47 48 48 48
46 44 44 38 39 45 55 60 61 46 46 56 57 56 54 53 54 58 58 59 59 58 59 59 55 53 51 50 49 47 47 46 47 47 48 48 50 49 48 47 48 46 47 48
47 43 40 39 37 41 58 58 52 52 52 56 56 56 56 56 58 58 58 57 57 57 58 58 53 51 49 48 48 47 47 47 47 47 47 48 49 48 48 47 46 47 47 47
45 49 44 44 45 52 54 53 55 55 57 57 57 58 58 58 57 58 56 56 56 56 56 56 52 49 47 48 48 47 48 47 47 47 47 49 49 48 48 46 45 46 47 47
49 50 47 48 50 52 55 56 57 58 58 60 61 60 58 56 57 56 56 55 55 56 56 55 51 47 46 47 48 48 48 48 48 47 48 49 48 46 48 46 45 45 44 46
51 51 48 48 52 54 57 59 60 60 61 61 61 60 58 57 56 56 55 55 55 55 55 53 50 47 47 48 48 49 49 48 47 47 49 48 48 46 46 45 42 43 41 40
51 50 48 47 54 54 54 59 61 60 59 59 59 58 58 58 57 56 55 55 54 55 55 52 48 48 47 48 49 49 49 49 48 47 49 47 47 47 46 46 46 40 39 39
MSLP
1011.08 1011.78 1012.41 1012.39 1012.21 1012.27 1012.52 1012.67 1012.61 1012.42 1012.63 1013.20 1014.38 1015.32 1015.71 1015.87 1016.41 1016.96 1017.28 1017.53 1017.62 1017.72 1017.81 1018.14 1018.53 1018.60 1018.48 1018.50 1018.95 1019.12 1019.36 1019.57 1019.67 1019.78 1019.80 1019.86 1019.61 1019.73 1019.83 1019.59 1019.49 1019.53 1019.53 1019.51
1011.60 1011.94 1011.82 1011.99 1012.06 1012.30 1012.59 1012.89 1012.93 1012.85 1013.02 1013.83 1015.01 1015.81 1016.43 1016.66 1017.17 1017.53 1017.81 1017.95 1017.91 1018.08 1018.13 1018.07 1018.34 1018.48 1018.59 1018.67 1018.86 1019.04 1019.20 1019.48 1019.52 1019.32 1019.35 1019.49 1019.58 1019.69 1019.82 1019.67 1019.62 1019.57 1019.59 1019.45
1011.53 1011.46 1011.40 1011.65 1012.21 1012.51 1012.93 1012.97 1013.11 1013.54 1013.89 1014.65 1015.53 1016.54 1016.67 1016.93 1017.36 1017.73 1017.90 1018.13 1018.37 1018.43 1018.39 1018.30 1018.34 1018.47 1018.69 1018.81 1018.90 1018.94 1019.02 1019.25 1019.31 1019.35 1019.55 1019.53 1019.68 1019.84 1019.79 1019.64 1019.51 1019.52 1019.43 1019.28
1011.39 1011.16 1011.27 1011.80 1012.21 1012.63 1013.03 1013.04 1013.50 1013.99 1014.93 1015.87 1016.53 1017.91 1017.53 1017.42 1017.45 1017.55 1017.68 1017.95 1018.18 1018.34 1018.39 1018.29 1018.29 1018.58 1018.87 1018.77 1018.77 1018.92 1018.69 1019.00 1019.20 1019.46 1019.70 1019.75 1019.92 1020.25 1020.14 1020.04 1019.85 1019.63 1019.43 1019.28
1011.60 1011.58 1011.78 1012.11 1012.47 1012.73 1013.33 1013.52 1014.44 1015.23 1016.12 1016.90 1017.53 1017.89 1017.93 1017.73 1017.65 1017.34 1017.42 1017.64 1017.88 1018.12 1018.24 1018.24 1018.35 1018.47 1018.56 1018.62 1018.64 1018.71 1018.83 1019.11 1019.31 1019.68 1019.59 1019.70 1020.06 1020.35 1020.18 1020.21 1020.11 1019.80 1019.56 1019.38
1011.71 1011.51 1011.54 1011.94 1012.51 1012.88 1013.42 1014.37 1015.76 1016.82 1017.53 1018.57 1018.60 1018.53 1018.34 1017.78 1017.08 1017.04 1017.01 1017.14 1017.34 1017.56 1017.81 1017.98 1018.10 1018.27 1018.45 1018.54 1018.58 1018.64 1019.14 1019.40 1019.64 1019.62 1019.69 1019.94 1020.40 1020.54 1020.61 1020.45 1020.31 1020.14 1019.89 1019.50
1012.27 1012.17 1011.85 1011.88 1012.63 1013.31 1014.07 1015.50 1017.48 1018.72 1019.56 1019.90 1018.96 1018.59 1017.81 1017.07 1016.76 1016.78 1016.79 1016.93 1016.97 1017.13 1017.43 1018.00 1018.30 1018.40 1018.52 1018.48 1018.39 1018.78 1019.21 1019.38 1019.38 1019.56 1019.82 1020.34 1020.47 1020.39 1020.49 1020.46 1020.39 1020.24 1020.01 1019.64
1013.28 1013.01 1012.38 1012.08 1012.75 1013.83 1015.22 1016.39 1018.29 1019.92 1021.08 1020.57 1019.29 1018.71 1017.49 1016.84 1016.60 1016.57 1016.76 1017.02 1017.02 1017.10 1017.81 1018.06 1018.20 1018.39 1018.33 1018.38 1018.82 1019.01 1019.24 1019.50 1019.66 1019.90 1020.06 1019.93 1019.95 1020.09 1020.10 1020.01 1019.99 1019.84 1019.59 1019.31
1013.57 1013.33 1012.60 1012.57 1012.87 1013.88 1015.41 1016.91 1018.15 1019.78 1021.29 1021.31 1020.17 1018.89 1017.36 1016.89 1016.76 1016.87 1017.06 1017.26 1017.09 1017.59 1017.73 1017.97 1018.19 1018.18 1018.44 1018.66 1018.97 1019.29 1019.52 1019.55 1019.67 1019.75 1019.73 1019.88 1019.98 1020.06 1020.19 1020.20 1020.13 1019.77 1019.06 1018.56
1013.48 1013.85 1013.57 1013.27 1013.52 1014.13 1014.84 1016.83 1018.34 1019.88 1021.42 1021.67 1020.60 1019.53 1018.33 1017.52 1017.21 1017.07 1017.11 1017.20 1017.26 1017.39 1017.67 1018.02 1018.12 1018.43 1018.68 1018.93 1019.24 1019.26 1019.43 1019.66 1019.75 1019.85 1020.04 1020.12 1020.14 1020.12 1020.11 1019.99 1019.63 1019.30 1018.82 1018.18
1013.64 1014.36 1014.78 1014.34 1014.57 1015.00 1015.78 1017.04 1018.92 1020.21 1021.42 1021.68 1021.31 1019.44 1017.43 1016.88 1016.61 1016.64 1016.86 1017.17 1017.30 1017.58 1017.88 1018.16 1018.48 1018.74 1018.97 1019.16 1019.36 1019.55 1019.67 1019.79 1020.00 1020.18 1020.27 1020.25 1020.14 1020.10 1020.01 1019.78 1019.38 1018.97 1018.39 1018.01
1014.44 1015.34 1016.02 1015.77 1015.41 1015.50 1015.93 1017.19 1018.66 1020.50 1021.72 1021.95 1021.33 1018.82 1016.98 1016.73 1016.40 1016.51 1017.20 1017.40 1017.52 1017.87 1018.21 1018.60 1018.78 1019.00 1019.31 1019.37 1019.34 1019.41 1019.57 1019.79 1019.96 1020.08 1020.21 1020.19 1020.09 1020.03 1019.94 1019.65 1019.11 1018.66 1018.10 1017.73
1014.57 1016.35 1017.04 1016.73 1016.31 1015.87 1016.41 1017.31 1018.51 1019.92 1020.94 1021.33 1021.20 1018.72 1016.87 1016.63 1016.60 1016.75 1017.13 1017.24 1017.80 1018.08 1018.43 1018.62 1018.93 1019.20 1019.19 1019.27 1019.29 1019.33 1019.56 1019.82 1020.03 1020.21 1020.33 1020.29 1020.19 1020.02 1019.78 1019.33 1018.87 1018.29 1017.88 1017.46
1014.77 1016.74 1017.17 1017.44 1016.90 1016.77 1016.94 1017.47 1018.18 1019.11 1020.62 1020.45 1019.83 1018.42 1017.13 1016.78 1016.87 1016.79 1016.88 1017.23 1017.90 1018.35 1018.55 1018.59 1019.06 1019.06 1019.03 1019.12 1019.36 1019.63 1019.83 1020.04 1020.16 1020.22 1020.35 1020.34 1020.13 1019.88 1019.47 1018.98 1018.53 1018.07 1017.66 1017.22
1015.56 1017.20 1017.54 1017.48 1017.05 1016.89 1017.03 1017.33 1017.83 1018.61 1018.86 1019.34 1018.53 1018.19 1017.07 1016.67 1016.55 1016.37 1016.99 1017.57 1017.89 1018.17 1018.51 1018.58 1018.77 1018.81 1018.91 1018.99 1019.13 1019.38 1019.65 1019.84 1020.10 1020.34 1020.39 1020.27 1019.97 1019.60 1019.16 1018.60 1018.20 1017.82 1017.37 1016.94
1016.66 1017.72 1017.85 1018.04 1017.55 1017.25 1017.18 1017.20 1017.35 1017.68 1017.88 1018.24 1017.90 1017.34 1016.46 1016.22 1016.56 1016.94 1017.35 1017.71 1017.85 1018.08 1018.35 1018.30 1018.25 1018.28 1018.22 1018.50 1018.95 1019.15 1019.62 1020.12 1020.41 1020.35 1020.31 1020.05 1019.66 1019.31 1018.89 1018.33 1017.94 1017.57 1017.09 1016.72
1017.62 1018.50 1019.00 1019.03 1018.42 1017.81 1017.67 1017.17 1017.20 1017.17 1017.18 1017.25 1017.43 1016.93 1016.55 1016.61 1016.98 1017.17 1017.31 1017.62 1018.03 1018.21 1017.93 1017.86 1017.78 1017.68 1017.71 1018.42 1019.11 1019.82 1019.94 1020.00 1020.34 1020.48 1020.21 1019.91 1019.59 1019.18 1018.61 1018.09 1017.74 1017.35 1016.93 1016.60
1017.98 1019.03 1019.81 1020.20 1019.45 1018.75 1017.50 1017.10 1017.03 1017.13 1016.96 1016.94 1016.89 1016.75 1016.78 1016.88 1016.96 1017.00 1017.19 1017.56 1017.87 1017.71 1017.67 1017.72 1017.49 1017.70 1018.23 1018.70 1019.18 1019.68 1019.99 1020.56 1020.53 1020.36 1020.02 1019.74 1019.42 1018.98 1018.46 1017.97 1017.62 1017.21 1016.86 1016.53
1017.95 1019.19 1020.64 1020.87 1020.47 1019.36 1017.76 1017.13 1017.09 1017.11 1017.09 1016.72 1016.94 1016.93 1017.09 1017.19 1017.18 1017.23 1017.58 1017.81 1017.90 1018.23 1017.96 1017.59 1017.60 1017.64 1018.03 1018.55 1019.02 1019.71 1020.18 1020.25 1020.35 1020.32 1020.01 1019.66 1019.30 1018.79 1018.34 1017.93 1017.59 1017.26 1016.94 1016.51
1018.86 1019.41 1020.29 1021.40 1021.03 1019.91 1017.89 1017.05 1016.88 1017.27 1017.48 1016.97 1016.94 1017.15 1017.36 1017.62 1018.19 1018.50 1018.27 1018.14 1018.04 1017.94 1017.66 1017.46 1017.20 1017.63 1018.04 1018.57 1019.17 1019.83 1020.22 1020.34 1020.35 1020.21 1019.95 1019.62 1019.17 1018.64 1018.25 1018.07 1017.76 1017.38 1016.94 1016.57
1019.48 1020.47 1021.01 1021.31 1020.72 1019.40 1017.63 1017.36 1017.33 1017.95 1017.91 1017.15 1017.22 1017.32 1017.63 1018.21 1018.51 1018.58 1018.59 1018.50 1018.27 1018.03 1017.77 1017.46 1017.75 1018.01 1018.20 1018.78 1019.46 1019.99 1020.30 1020.41 1020.27 1020.01 1019.81 1019.47 1019.05 1018.70 1018.51 1018.28 1017.80 1017.38 1016.93 1016.54
1019.78 1020.52 1021.17 1021.54 1020.87 1019.46 1017.66 1017.69 1017.81 1017.80 1017.44 1017.30 1017.38 1017.50 1017.71 1018.02 1018.41 1018.62 1018.78 1018.71 1018.43 1018.23 1017.91 1017.65 1017.88 1017.96 1018.73 1019.38 1019.60 1020.02 1020.13 1020.09 1020.05 1019.92 1019.72 1019.40 1019.10 1018.92 1018.65 1018.35 1017.96 1017.50 1017.08 1016.92
1019.86 1019.89 1020.35 1021.13 1019.83 1018.64 1017.98 1017.65 1017.39 1017.46 1017.38 1017.43 1017.46 1017.60 1017.80 1018.12 1018.61 1018.85 1018.93 1018.89 1018.64 1018.30 1017.99 1017.73 1017.82 1018.63 1019.24 1019.52 1019.79 1020.11 1020.17 1019.95 1019.93 1019.89 1019.64 1019.39 1019.26 1019.11 1018.90 1018.64 1018.28 1017.92 1017.59 1017.51
1019.35 1019.50 1019.84 1020.01 1019.20 1018.57 1017.92 1017.63 1017.44 1017.37 1017.34 1017.36 1017.42 1017.62 1017.95 1018.42 1018.76 1018.93 1018.94 1018.86 1018.61 1018.28 1018.00 1017.71 1017.91 1018.67 1019.33 1019.59 1019.76 1019.99 1020.04 1019.88 1019.93 1019.81 1019.69 1019.55 1019.55 1019.52 1019.23 1019.02 1018.80 1018.64 1018.51 1018.41
1018.84 1019.30 1019.53 1019.49 1018.77 1018.29 1017.67 1017.42 1017.33 1017.36 1017.40 1017.52 1017.74 1017.91 1018.24 1018.49 1018.79 1018.98 1019.12 1018.88 1018.58 1018.31 1017.95 1017.66 1018.10 1018.85 1019.45 1019.60 1019.81 1019.96 1019.94 1019.91 1020.01 1019.94 1019.84 1019.80 1019.83 1019.87 1019.57 1019.57 1019.61 1019.34 1019.44 1019.37
1018.74 1018.70 1018.88 1018.44 1017.90 1017.93 1017.77 1017.44 1017.40 1017.58 1017.82 1017.99 1018.13 1018.35 1018.51 1018.69 1018.99 1019.02 1019.05 1018.90 1018.75 1018.40 1017.86 1017.81 1018.39 1018.85 1019.32 1019.61 1019.87 1019.97 1019.89 1019.92 1020.11 1020.12 1020.01 1020.09 1020.17 1020.12 1019.92 1019.83 1019.84 1019.87 1019.80 1019.57
Wind_Speed
5 7 1 5 4 4 6 3 2 3 4 6 4 4 7 3 7 6 5 5 5 7 2 3 3 2 4 2 2 3 4 3 3 2 2 2 2 2 2 1 2 3 2 2
6 1 3 3 6 7 5 2 3 5 5 7 2 7 5 4 2 1 2 5 7 4 4 4 0 1 3 3 2 4 4 4 4 2 2 1 1 1 2 2 2 1 1 2
4 4 1 6 5 6 1 4 1 4 4 6 4 7 7 2 3 2 1 2 4 7 8 5 4 2 3 3 4 5 5 4 4 3 1 2 1 1 2 1 2 2 4 3
2 4 6 5 3 4 1 2 2 3 4 2 3 3 4 5 5 3 4 5 7 7 6 5 5 5 5 6 4 5 7 6 4 1 0 1 1 2 2 2 2 4 4 5
1 4 5 6 1 3 2 3 3 3 5 4 9 6 6 3 3 5 6 8 8 7 8 8 7 6 6 6 5 6 4 5 2 2 1 1 2 2 2 3 5 5 5 5
2 1 2 4 2 3 2 4 7 5 4 5 5 4 4 4 7 3 4 6 8 7 7 7 6 5 5 3 5 5 5 4 3 3 3 3 5 5 4 4 4 5 4 5
7 5 4 3 4 6 7 8 6 7 8 4 5 3 8 5 3 5 7 8 8 7 6 5 6 5 5 7 7 3 2 4 3 4 5 4 3 2 3 4 3 5 4 5
5 5 1 2 2 5 4 6 7 1 1 5 5 0 6 2 3 4 5 6 6 7 3 6 6 6 7 5 2 2 0 3 3 3 3 2 2 1 2 2 3 4 4 6
5 3 3 4 2 4 2 5 4 7 3 2 3 5 7 0 2 1 5 6 8 5 6 7 6 7 3 2 3 1 1 2 3 4 2 2 3 3 4 5 5 5 6 6
7 3 2 2 1 6 3 6 4 4 1 3 5 4 6 5 8 7 8 10 7 5 5 6 6 2 1 1 2 3 1 2 3 3 2 3 4 4 5 5 7 7 7 6
4 5 5 1 4 1 3 2 7 5 4 5 2 7 8 9 10 11 9 7 7 6 5 5 1 1 1 2 2 2 2 2 2 2 3 4 5 5 5 5 7 8 6 6
1 6 3 1 2 3 2 3 5 7 5 1 3 9 4 7 9 9 6 6 5 4 3 1 4 4 3 5 5 4 3 4 4 3 3 5 5 5 6 7 8 7 6 6
5 3 4 8 8 5 5 3 5 5 3 4 5 8 3 5 2 3 7 7 4 4 2 3 3 5 6 6 5 5 5 5 3 2 3 5 6 5 6 7 7 7 6 6
8 4 7 8 6 3 2 1 2 5 3 3 7 7 7 4 2 4 5 3 4 5 6 4 3 7 6 6 5 5 5 3 2 3 4 5 6 6 7 7 7 8 6 6
5 4 3 2 1 2 1 2 1 4 5 5 5 4 7 7 9 8 4 3 4 5 6 7 8 7 7 7 6 4 4 3 1 4 5 6 6 6 7 7 7 7 6 5
4 2 2 1 1 2 1 2 4 3 0 5 3 5 7 3 1 2 1 6 7 5 8 9 8 8 10 7 6 5 3 2 1 4 5 6 6 6 7 7 7 7 6 6
3 6 4 3 2 2 4 3 3 3 4 3 4 5 5 4 2 2 5 6 6 8 10 9 9 9 8 5 3 1 2 2 2 5 5 6 7 7 7 7 7 7 6 6
5 5 3 2 3 1 6 2 4 4 4 3 3 4 1 1 3 5 5 6 8 9 9 9 8 7 2 2 3 2 4 1 4 5 5 6 7 7 7 7 6 6 5 5
3 5 4 4 3 5 4 4 5 4 6 2 1 3 3 3 3 6 6 3 6 6 8 9 5 4 3 5 5 5 3 2 4 5 6 6 7 7 7 7 7 6 5 5
6 6 6 3 4 7 9 2 3 4 6 3 2 1 1 2 2 5 7 6 6 7 6 8 6 2 5 5 5 5 1 3 4 5 6 6 6 6 6 7 7 5 5 4
3 3 4 2 4 7 7 3 4 5 9 2 1 2 3 2 5 4 6 6 4 5 8 7 4 2 5 6 6 4 1 4 4 4 5 6 6 5 5 6 6 5 5 3
5 5 3 3 1 7 5 4 6 7 2 2 1 1 2 2 2 3 5 7 8 9 9 7 3 6 4 5 5 3 2 3 4 4 5 5 4 5 5 6 6 5 5 4
1 7 5 9 8 4 5 2 1 3 3 2 3 2 2 4 4 4 5 7 7 7 6 5 6 4 4 4 4 3 2 3 4 4 4 4 4 6 6 6 6 5 5 4
2 4 3 3 2 5 6 3 2 4 3 4 3 3 2 3 3 5 5 7 7 7 7 5 2 5 5 4 3 2 2 3 3 4 4 3 4 6 6 5 5 5 5 4
5 5 5 3 5 4 2 4 5 4 3 4 3 3 2 2 3 3 5 6 7 7 7 5 2 5 5 4 3 2 2 3 4 4 4 4 4 5 4 5 5 4 3 2
5 7 5 7 7 4 2 3 3 5 4 5 4 2 2 3 3 3 6 5 5 8 8 6 4 6 5 4 3 2 2 3 3 3 3 4 3 3 4 3 3 7 6 8
Wind_Direction
7 52 334 227 198 117 96 82 90 309 359 78 37 77 341 358 72 121 174 180 220 230 265 103 121 133 25 94 137 143 133 177 167 183 179 227 196 224 248 293 317 39 22 1
15 287 277 134 104 97 66 41 341 298 11 88 17 38 78 33 38 356 186 219 236 280 261 253 173 333 33 321 189 151 170 207 218 186 203 194 114 310 275 277 288 183 320 320
155 240 112 113 89 89 74 136 226 223 19 45 41 6 359 62 85 48 100 261 270 256 271 285 289 281 294 302 218 200 195 204 221 208 88 26 28 302 329 322 344 314 329 333
205 314 121 104 86 105 14 261 267 267 71 185 45 236 327 345 354 333 274 265 257 252 258 258 250 250 231 249 220 198 185 199 220 251 221 100 197 289 264 298 297 308 316 308
298 54 68 75 317 157 200 46 32 60 92 85 351 79 268 3 334 276 268 247 244 239 237 247 247 242 234 244 218 220 198 248 305 241 220 338 291 255 310 311 302 311 321 313
56 335 66 136 77 51 121 82 42 50 67 42 308 109 287 184 210 244 265 253 251 247 243 248 253 276 271 225 201 204 217 276 269 304 321 325 301 314 318 326 335 331 315 314
7 351 322 126 74 19 52 52 1 10 14 231 334 46 232 266 257 219 231 250 246 245 238 249 244 239 232 212 218 206 190 258 322 350 3 329 296 352 335 324 309 314 306 299
122 339 27 2 161 157 55 116 140 210 252 274 320 327 274 262 283 300 250 270 252 243 241 240 226 218 225 236 109 123 128 300 356 349 312 15 31 305 281 274 280 269 268 279
134 262 320 43 90 127 149 57 161 104 13 41 284 301 327 31 259 307 246 241 242 233 225 231 231 228 309 92 147 176 20 349 334 320 5 329 293 296 278 281 281 274 276 281
198 99 64 312 68 39 103 147 57 16 138 282 299 276 241 247 234 245 247 235 245 241 233 238 241 249 85 80 73 99 92 258 307 351 304 276 285 260 265 284 275 280 281 279
123 103 284 22 21 197 19 31 51 111 121 169 239 267 219 224 216 211 228 237 245 251 249 246 244 151 126 91 134 200 252 303 298 265 272 278 270 277 294 283 287 274 283 293
93 123 109 208 314 266 101 94 110 108 275 123 157 270 259 255 244 204 221 232 248 269 264 158 186 170 167 202 213 223 249 253 241 255 283 283 288 291 290 295 290 290 290 301
180 36 57 354 354 356 64 56 105 105 84 208 136 268 323 339 13 208 201 227 258 252 179 179 172 206 219 233 243 243 255 261 252 280 295 299 291 293 290 292 292 295 295 302
86 102 145 185 202 177 112 12 102 124 123 207 230 283 307 306 251 216 210 184 200 198 203 214 234 241 241 242 246 256 281 254 269 285 299 296 296 290 284 289 295 297 300 303
94 110 135 161 127 129 199 319 12 209 216 172 265 228 277 253 220 224 188 139 181 201 232 229 233 239 244 246 250 258 254 230 228 298 302 296 294 291 291 292 300 303 302 298
6 142 113 124 55 9 269 323 290 227 289 262 273 269 213 305 325 59 218 208 225 215 245 250 250 249 244 235 237 239 244 236 318 298 296 295 296 299 297 299 305 307 306 309
76 128 94 240 334 34 350 227 244 270 226 212 237 261 342 357 7 237 231 217 233 238 246 253 251 248 247 229 243 284 241 181 281 302 302 300 303 304 305 308 311 306 315 314
119 94 76 167 21 198 242 246 231 237 269 250 274 321 19 37 292 281 227 205 232 239 258 277 275 292 296 101 132 134 109 345 314 311 304 301 306 308 309 317 312 312 319 324
70 111 93 136 187 285 292 208 182 174 276 193 247 331 36 10 16 323 5 274 288 315 285 270 279 253 149 159 157 123 139 282 327 316 303 305 308 308 322 322 325 324 319 327
68 68 113 138 167 210 239 184 139 99 298 265 173 287 235 84 36 278 334 335 335 314 296 300 290 147 147 156 134 118 102 340 323 302 305 309 308 318 331 339 329 319 317 319
36 27 156 132 224 290 244 177 144 89 239 208 205 217 150 169 199 250 328 340 305 285 317 323 341 245 184 146 118 102 32 337 307 308 316 317 325 344 351 327 344 322 330 336
181 153 206 98 140 273 164 82 165 214 218 188 175 90 102 167 353 350 353 340 343 333 328 320 269 224 114 102 111 117 17 326 312 326 329 330 355 360 352 350 341 344 353 44
234 182 189 171 216 259 277 255 268 155 144 181 142 176 123 51 19 359 343 337 316 309 313 298 250 95 118 129 117 89 0 356 332 348 341 348 8 8 10 358 2 2 7 50
248 156 168 74 269 260 274 270 186 179 172 167 128 105 67 69 15 3 352 345 338 322 316 301 235 139 140 149 145 102 5 348 354 353 354 10 29 16 17 26 10 23 15 30
194 123 161 252 273 278 274 206 170 144 106 101 92 106 100 88 23 1 333 334 325 316 309 306 232 142 150 163 140 77 5 3 3 5 30 38 43 30 13 58 23 15 52 15
182 175 159 217 220 158 195 163 151 121 112 124 121 94 47 57 22 340 334 321 305 314 308 335 110 137 152 150 135 75 27 33 19 24 47 55 39 34 33 28 40 63 62 60